Location: Unspecified
(0.0000°N, 0.0000°E)
Time: 15:40:47
(UTC+00:00)

NOSS 3-4 (A) - Pass Details

Date: 08 August 2024
Orbit: 801 x 1411 km, 63.4° (Epoch: 13 September)

Event Time Altitude Azimuth Distance (km) Brightness Sun altitude
Rises 18:43:16 0° 170° (S) 3,555 6.2 -9.1°
Reaches altitude 10° 18:47:28 10° 142° (SE) 2,502 5.2 -10.1°
Enters shadow 18:49:48 13° 118° (ESE) 2,257 4.8 -10.6°
